time_stamp(utc),avg(mph),gust(mph),direction(deg),12m_air_temp(f),sonic_u(cm/s),sonic_v(cm/s),sonic_w(cm/s),pressure,2m_air_temp(f),pyranometer(W/m^2)
"2021-06-21 00:02:39+00",13.7,18.7,,73.7,-186,-566,-14,1009.07,73.6,0
"2021-06-21 00:07:39+00",14.4,16.4,,73.8,-242,-582,-16,1008.97,73.6,0
"2021-06-21 00:12:39+00",12.8,15.8,,73.7,-163,-542,-8,1009.04,73.5,0
"2021-06-21 00:17:39+00",15.5,18.5,,73.7,-247,-624,-18,1008.98,73.4,0
"2021-06-21 00:22:39+00",13.2,16.2,,73.5,-245,-535,0,1008.99,73.3,0
"2021-06-21 00:27:39+00",12.3,15.3,,73.3,-201,-502,-3,1008.89,73.1,0
"2021-06-21 00:32:39+00",9.9,11.9,,73.3,-188,-402,-4,1008.89,73,0
"2021-06-21 00:37:39+00",10.0,13.0,,73.5,-232,-398,17,1008.82,73,0
"2021-06-21 00:42:39+00",14.0,15.0,,73.9,-345,-542,-8,1008.79,73.3,0
"2021-06-21 00:47:39+00",12.8,15.8,,73.9,-330,-489,5,1008.77,73.4,0
"2021-06-21 00:52:39+00",13.6,15.6,,74,-374,-494,-1,1008.72,73.4,0
"2021-06-21 00:57:39+00",12.1,14.1,,74,-323,-450,11,1008.74,73.5,0
"2021-06-21 01:02:39+00",13.1,15.1,,74.1,-305,-514,1,1008.74,73.5,0
"2021-06-21 01:07:39+00",12.4,14.4,,74.1,-336,-463,3,1008.68,73.5,0
"2021-06-21 01:12:39+00",10.9,12.9,,74.1,-314,-391,16,1008.85,73.6,0
"2021-06-21 01:17:39+00",11.7,13.7,,74.1,-358,-393,4,1008.84,73.6,0
"2021-06-21 01:22:39+00",11.2,14.2,,74.1,-335,-371,23,1008.89,73.5,0
"2021-06-21 01:27:39+00",11.3,12.3,,74,-330,-406,12,1008.92,73.5,0
"2021-06-21 01:32:39+00",11.0,13.0,,74,-321,-445,-14,1008.98,73.4,0
"2021-06-21 01:37:39+00",9.1,12.1,,73.9,-338,-412,-52,1009.11,73.4,0
"2021-06-21 01:42:39+00",9.0,12.0,,73.9,-320,-380,-58,1009.09,73.3,0
"2021-06-21 01:47:39+00",7.8,9.8,,73.8,-298,-345,-59,1009.09,73.3,0
"2021-06-21 01:52:39+00",9.3,13.3,,73.8,-363,-325,-70,1009.13,73.3,0
"2021-06-21 01:57:39+00",10.8,13.8,,74,-426,-407,-70,1009.05,73.3,0
"2021-06-21 02:02:39+00",10.0,12.0,,74.2,-370,-377,-43,1009.13,73.4,0
"2021-06-21 02:07:39+00",8.0,10.0,,74,-281,-325,-50,1009.08,73.4,0
"2021-06-21 02:12:39+00",8.6,9.6,,73.8,-200,-374,-55,1009.1,73.3,0
"2021-06-21 02:17:39+00",9.3,11.3,,73.7,-214,-389,-53,1009.08,73.2,0
"2021-06-21 02:22:39+00",9.3,11.3,,73.7,-213,-371,-54,1009.04,73.2,0
"2021-06-21 02:27:39+00",9.6,12.6,,73.5,-214,-396,-84,1009.09,73,0
"2021-06-21 02:32:39+00",7.2,11.2,,73.4,-150,-256,-51,1009.1,73,0
"2021-06-21 02:37:39+00",10.0,12.0,,73.3,-262,-422,-44,1009.12,72.9,0
"2021-06-21 02:42:39+00",11.0,14.0,,73,-289,-456,-32,1009.18,72.7,0
"2021-06-21 02:47:39+00",11.2,13.2,,73,-242,-470,-42,1009.1,72.6,0
"2021-06-21 02:52:39+00",10.0,12.0,,72.7,-210,-416,-48,1009.23,72.4,0
"2021-06-21 02:57:39+00",12.4,14.4,,72.5,-244,-493,-55,1009.17,72.2,0
"2021-06-21 03:02:39+00",13.6,16.6,,72.7,-423,-561,-43,1009.23,72.3,0
"2021-06-21 03:07:39+00",14.8,18.8,,72.6,-458,-552,-20,1009.21,72.3,0
"2021-06-21 03:12:39+00",13.0,16.0,,72.6,-442,-524,-29,1009.31,72.3,0
"2021-06-21 03:17:39+00",11.4,14.4,,72.5,-363,-510,-36,1009.23,72.2,0
"2021-06-21 03:22:39+00",11.9,14.9,,72.5,-391,-553,-40,1009.19,72.2,0
"2021-06-21 03:27:39+00",10.9,13.9,,72.4,-347,-504,-54,1009.19,72.1,0
"2021-06-21 03:32:39+00",9.9,12.9,,72.4,-319,-406,-34,1009.14,72,0
"2021-06-21 03:37:39+00",11.6,13.6,,72.4,-394,-416,-41,1009.18,72,0
"2021-06-21 03:42:39+00",10.8,13.8,,72.5,-348,-407,-43,1009.09,72,0
"2021-06-21 03:47:39+00",9.8,12.8,,72.5,-340,-427,-52,1009.08,72,0
"2021-06-21 03:52:39+00",9.3,10.3,,72.4,-292,-426,-53,1009.04,72,0
"2021-06-21 03:57:39+00",10.4,14.4,,72.3,-328,-432,-60,1009.03,71.8,0
"2021-06-21 04:02:39+00",13.5,15.5,,72.5,-413,-580,-22,1008.92,71.9,0
"2021-06-21 04:07:39+00",14.6,17.6,,72.4,-440,-495,-3,1008.75,71.9,0
"2021-06-21 04:12:39+00",14.2,16.2,,72.3,-419,-526,-12,1008.73,71.9,0
"2021-06-21 04:17:39+00",12.7,13.7,,72.3,-379,-528,-36,1008.61,71.9,0
"2021-06-21 04:22:39+00",9.8,11.8,,72.2,-300,-445,-35,1008.4,71.8,0
"2021-06-21 04:27:39+00",8.9,10.9,,72.1,-250,-410,-47,1008.46,71.7,0
"2021-06-21 04:32:39+00",10.1,12.1,,72,-223,-443,-62,1008.41,71.6,0
"2021-06-21 04:37:39+00",10.8,12.8,,72,-233,-484,-57,1008.37,71.6,0
"2021-06-21 04:42:39+00",12.2,15.2,,71.9,-199,-510,-66,1008.35,71.5,0
"2021-06-21 04:47:39+00",10.0,14.0,,71.8,-241,-461,-60,1008.35,71.5,0
"2021-06-21 04:52:39+00",10.8,11.8,,71.5,-156,-452,-74,1008.45,71.2,0
"2021-06-21 04:57:39+00",14.8,16.8,,71.1,-201,-621,-53,1008.3,70.9,0
"2021-06-21 05:02:39+00",11.9,12.9,,70.9,-255,-531,-56,1008.38,70.8,0
"2021-06-21 05:07:39+00",11.2,13.2,,70.8,-277,-475,-35,1008.29,70.7,0
"2021-06-21 05:12:39+00",10.4,13.4,,71,-325,-399,-34,1008.18,70.8,0
"2021-06-21 05:17:39+00",8.1,11.1,,71,-228,-350,-43,1008.12,70.8,0
"2021-06-21 05:22:39+00",8.0,10.0,,71.1,-238,-365,-60,1008.03,70.8,0
"2021-06-21 05:27:39+00",8.4,11.4,,71,-204,-352,-58,1008.03,70.8,0
"2021-06-21 05:32:39+00",8.3,10.3,,71.1,-226,-377,-49,1008.06,70.8,0
"2021-06-21 05:37:39+00",7.8,8.8,,71.1,-215,-352,-54,1007.99,70.8,0
"2021-06-21 05:42:39+00",7.0,9.0,,70.9,-74,-289,-51,1007.98,70.7,0
"2021-06-21 05:47:39+00",9.8,11.8,,70.9,-310,-409,-49,1007.92,70.7,0
"2021-06-21 05:52:39+00",10.5,15.5,,71,-364,-518,-49,1007.9,70.9,0
"2021-06-21 05:57:39+00",10.8,14.8,,71,-346,-498,-41,1007.87,70.9,0
"2021-06-21 06:02:39+00",11.8,15.8,,70.8,-401,-507,-41,1007.95,70.9,0
"2021-06-21 06:07:39+00",11.7,12.7,,70.7,-405,-542,-49,1007.96,70.9,0
"2021-06-21 06:12:39+00",11.0,13.0,,70.8,-369,-508,-38,1007.98,70.9,0
"2021-06-21 06:17:39+00",9.6,10.6,,70.7,-313,-452,-24,1007.96,70.8,0
"2021-06-21 06:22:39+00",10.4,13.4,,70.7,-302,-496,-62,1007.98,70.8,0
"2021-06-21 06:27:39+00",8.8,10.8,,70.6,-253,-425,-59,1007.87,70.7,0
"2021-06-21 06:32:39+00",7.5,9.5,,70.6,-186,-337,-42,1007.93,70.7,0
"2021-06-21 06:37:39+00",8.5,10.5,,70.6,-236,-397,-47,1007.99,70.6,0
"2021-06-21 06:42:39+00",8.0,10.0,,70.6,-239,-359,-43,1007.97,70.6,0
"2021-06-21 06:47:39+00",8.4,11.4,,70.7,-108,-339,-42,1007.99,70.6,0
"2021-06-21 06:52:39+00",9.2,12.2,,70.1,-61,-366,-57,1007.83,70.2,0
"2021-06-21 06:57:39+00",9.1,12.1,,70,-157,-403,-71,1007.81,70,0
"2021-06-21 07:02:39+00",8.5,10.5,,70.3,-188,-362,-70,1007.84,70.2,0
"2021-06-21 07:07:39+00",9.4,12.4,,70.1,-110,-379,-83,1007.79,70.1,0
"2021-06-21 07:12:39+00",10.3,13.3,,70,-86,-427,-78,1007.72,70,0
"2021-06-21 07:17:39+00",10.7,13.7,,69.9,-97,-459,-97,1007.82,69.9,0
"2021-06-21 07:22:39+00",10.0,12.0,,69.9,-127,-403,-76,1007.75,69.9,0
"2021-06-21 07:27:39+00",11.7,14.7,,69.9,-174,-476,-80,1007.79,69.8,0
"2021-06-21 07:32:39+00",12.4,15.4,,69.8,-142,-508,-94,1007.66,69.8,0
"2021-06-21 07:37:39+00",10.4,13.4,,69.8,-140,-449,-40,1007.67,69.8,0
"2021-06-21 07:42:39+00",10.3,13.3,,69.9,-82,-409,-73,1007.54,69.8,0
"2021-06-21 07:47:39+00",10.6,12.6,,69.9,-66,-428,-86,1007.55,69.8,0
"2021-06-21 07:52:39+00",10.0,12.0,,69.9,-87,-391,-72,1007.56,69.8,0
"2021-06-21 07:57:39+00",12.1,15.1,,69.8,-189,-504,-77,1007.5,69.8,0
"2021-06-21 08:02:39+00",11.5,15.5,,69.9,-197,-518,-46,1007.51,69.8,0
"2021-06-21 08:07:39+00",11.9,13.9,,70,-160,-506,-73,1007.44,69.9,0
"2021-06-21 08:12:39+00",12.8,14.8,,70,-197,-516,-95,1007.48,69.9,0
"2021-06-21 08:17:39+00",11.0,13.0,,70,-152,-446,-83,1007.49,69.9,0
"2021-06-21 08:22:39+00",10.5,13.5,,70,-164,-431,-79,1007.56,69.9,0
"2021-06-21 08:27:39+00",10.0,13.0,,70.1,-191,-419,-70,1007.53,70,0
"2021-06-21 08:32:39+00",11.3,13.3,,70.1,-163,-465,-75,1007.55,70,0
"2021-06-21 08:37:39+00",8.5,9.5,,70.4,-240,-329,-58,1007.64,70.2,0
"2021-06-21 08:42:39+00",10.3,16.3,,70.6,-333,-402,-40,1007.55,70.5,0
"2021-06-21 08:47:39+00",11.6,12.6,,70.6,-362,-340,-18,1007.56,70.4,0
"2021-06-21 08:52:39+00",11.4,13.4,,70.6,-400,-309,-27,1007.47,70.5,0
"2021-06-21 08:57:39+00",10.7,12.7,,70.4,-383,-267,-26,1007.58,70.5,0
"2021-06-21 09:02:39+00",14.3,17.3,,70.4,-452,-409,-19,1007.66,70.4,0
"2021-06-21 09:07:39+00",13.5,16.5,,70.3,-431,-445,-28,1007.68,70.3,0
"2021-06-21 09:12:39+00",9.0,10.0,,70.3,-266,-421,-36,1007.77,70.3,0
"2021-06-21 09:17:39+00",9.5,11.5,,70.4,-296,-451,-44,1007.82,70.3,0
"2021-06-21 09:22:39+00",9.4,10.4,,70.4,-254,-343,16,1007.79,70.3,0
"2021-06-21 09:27:39+00",9.7,10.7,,70.4,-264,-346,7,1007.7,70.3,0
"2021-06-21 09:32:39+00",7.9,9.9,,70.4,-228,-272,11,1007.86,70.3,0
"2021-06-21 09:37:39+00",10.0,11.0,,70.4,-267,-355,-3,1007.74,70.3,0
"2021-06-21 09:42:39+00",9.0,10.0,,70.4,-247,-321,10,1007.66,70.4,0
"2021-06-21 09:47:39+00",10.2,11.2,,70.4,-278,-379,4,1007.82,70.3,0
"2021-06-21 09:52:39+00",10.8,11.8,,70.4,-246,-415,-5,1007.86,70.4,0
"2021-06-21 09:57:39+00",10.7,12.7,,70.4,-310,-368,8,1007.91,70.3,0
"2021-06-21 10:02:39+00",10.6,12.6,,70.4,-333,-342,13,1007.86,70.3,0
"2021-06-21 10:07:39+00",10.4,12.4,,70.3,-311,-346,5,1007.83,70.3,0
"2021-06-21 10:12:39+00",8.7,10.7,,70.4,-253,-276,15,1007.94,70.4,0
"2021-06-21 10:17:39+00",7.7,9.7,,70.4,-211,-278,10,1008.03,70.4,0
"2021-06-21 10:22:39+00",7.3,9.3,,70.5,-167,-296,22,1008.05,70.4,0
"2021-06-21 10:27:39+00",10.3,11.3,,70.4,-225,-400,0,1007.94,70.4,0
"2021-06-21 10:32:39+00",9.5,10.5,,70.4,-247,-358,4,1008.07,70.4,0
"2021-06-21 10:37:39+00",9.9,10.9,,70.3,-224,-380,19,1008,70.3,0
"2021-06-21 10:42:39+00",8.5,10.5,,70.3,-196,-328,18,1007.98,70.3,0
"2021-06-21 10:47:39+00",9.2,11.2,,70.4,-231,-346,17,1007.94,70.4,0
"2021-06-21 10:52:39+00",9.7,11.7,,70.4,-236,-372,19,1007.97,70.4,0
"2021-06-21 10:57:39+00",9.2,11.2,,70.5,-147,-384,-2,1007.93,70.6,0
"2021-06-21 11:02:39+00",8.3,9.3,,70.7,-155,-332,17,1007.88,70.7,0
"2021-06-21 11:07:39+00",8.3,10.3,,71,-171,-325,8,1007.78,71.1,0
"2021-06-21 11:12:39+00",9.1,11.1,,71,-150,-370,6,1007.83,71.1,0
"2021-06-21 11:17:39+00",8.5,10.5,,71,-88,-345,-19,1007.86,71.1,0
"2021-06-21 11:22:39+00",10.1,12.1,,71.2,-113,-424,-8,1007.87,71.4,0
"2021-06-21 11:27:39+00",11.3,14.3,,71.3,-132,-476,-5,1007.84,71.5,0
"2021-06-21 11:32:39+00",10.7,12.7,,71.6,-175,-439,-21,1007.94,71.9,0
"2021-06-21 11:37:39+00",11.4,13.4,,71.8,-224,-441,-16,1008.01,72.2,0
"2021-06-21 11:42:39+00",8.2,10.2,,72,-174,-325,13,1007.94,72.4,0
"2021-06-21 11:47:39+00",8.4,10.4,,72,-130,-351,-5,1007.87,72.5,0
"2021-06-21 11:52:39+00",6.1,7.1,,72.2,-71,-252,3,1007.82,72.6,0
"2021-06-21 11:57:39+00",7.1,9.1,,72.2,-97,-294,3,1007.83,72.7,0
"2021-06-21 12:02:39+00",8.7,10.7,,72.5,-150,-347,-5,1007.82,73.1,0
"2021-06-21 12:07:39+00",10.0,11.0,,72.7,-255,-391,-4,1007.87,73.6,0
"2021-06-21 12:12:39+00",9.3,10.3,,72.7,-221,-365,-3,1007.96,73.7,0
"2021-06-21 12:17:39+00",10.3,12.3,,72.7,-222,-421,8,1008.02,73.7,0
"2021-06-21 12:22:39+00",9.3,11.3,,72.6,-211,-368,4,1008.03,73.6,0
"2021-06-21 12:27:39+00",7.7,9.7,,73,-90,-309,7,1007.91,73.8,0
"2021-06-21 12:32:39+00",9.0,12.0,,73.3,-56,-379,-6,1008,74.1,0
"2021-06-21 12:37:39+00",8.4,12.4,,73.3,-52,-355,0,1007.94,74,0
"2021-06-21 12:42:39+00",9.5,13.5,,73.4,-93,-405,1,1007.84,74.1,0
"2021-06-21 12:47:39+00",9.8,13.8,,73.7,-86,-407,15,1007.88,74.7,0
"2021-06-21 12:52:39+00",11.0,14.0,,73.7,-127,-445,-6,1007.88,74.8,0
"2021-06-21 12:57:39+00",12.8,14.8,,73.8,-148,-545,-25,1007.77,75.2,0
"2021-06-21 13:02:39+00",13.9,15.9,,73.9,-158,-572,-26,1007.76,75.1,0
"2021-06-21 13:07:39+00",13.1,15.1,,74.2,-166,-540,-18,1007.64,75.3,0
"2021-06-21 13:12:39+00",10.9,13.9,,74.2,-86,-458,-13,1007.69,75.4,0
"2021-06-21 13:17:39+00",7.2,12.2,,74.4,-67,-295,53,1007.75,75.4,0
"2021-06-21 13:22:39+00",12.8,15.8,,74.4,-99,-539,-9,1007.8,75.6,0
"2021-06-21 13:27:39+00",12.9,16.9,,74.8,-238,-552,8,1007.84,76.1,0
"2021-06-21 13:32:39+00",14.1,17.1,,75,-299,-549,12,1007.92,76.7,0
"2021-06-21 13:37:39+00",14.9,16.9,,75.2,-166,-626,-18,1007.84,76.7,0
"2021-06-21 13:42:39+00",16.1,19.1,,74.7,-219,-681,-12,1007.86,76,0
"2021-06-21 13:47:39+00",16.9,19.9,,74.6,-220,-698,-15,1007.74,75.6,0
"2021-06-21 13:52:39+00",17.2,20.2,,74,-251,-692,-3,1007.69,75.1,0
"2021-06-21 13:57:39+00",16.0,19.0,,74.1,-319,-646,6,1007.74,75.3,0
"2021-06-21 14:02:39+00",17.9,20.9,,73.8,-328,-743,-8,1007.76,75,0
"2021-06-21 14:07:39+00",17.0,19.0,,73.8,-317,-683,-15,1007.83,74.7,0
"2021-06-21 14:12:39+00",15.0,18.0,,73.8,-363,-572,0,1007.93,74.7,0
"2021-06-21 14:17:39+00",14.6,17.6,,74,-321,-586,4,1007.85,74.9,0
"2021-06-21 14:22:39+00",13.1,16.1,,74.3,-259,-527,10,1007.79,75.2,0
"2021-06-21 14:27:39+00",13.0,16.0,,74.8,-302,-500,-2,1007.56,76,0
"2021-06-21 14:32:39+00",13.7,16.7,,75.2,-361,-503,27,1007.49,76.6,0
"2021-06-21 14:37:39+00",14.8,16.8,,74.8,-427,-496,-10,1007.34,76.7,0
"2021-06-21 14:42:39+00",14.0,17.0,,75,-413,-460,9,1007.18,76.6,0
"2021-06-21 14:47:39+00",14.6,17.6,,74.9,-435,-485,-5,1007.21,76.6,0
"2021-06-21 14:52:39+00",13.7,16.7,,75,-362,-519,15,1007.18,76.7,0
"2021-06-21 14:57:39+00",16.2,17.2,,75.2,-369,-638,-8,1007.2,76.9,0
"2021-06-21 15:02:39+00",14.0,17.0,,75.8,-245,-570,-9,1007.2,77.2,0
"2021-06-21 15:07:39+00",14.1,17.1,,76.1,-353,-541,30,1007.33,77.8,0
"2021-06-21 15:12:39+00",14.0,17.0,,76.5,-367,-543,44,1007.32,78.3,0
"2021-06-21 15:17:39+00",13.7,16.7,,75.9,-101,-592,-19,1007.26,77.6,0
"2021-06-21 15:22:39+00",12.2,16.2,,75.5,-97,-510,2,1007.39,76.7,0
"2021-06-21 15:27:39+00",16.7,19.7,,75.1,-193,-716,-22,1007.49,76.4,0
"2021-06-21 15:32:39+00",16.6,19.6,,74.9,-234,-679,-16,1007.34,76.5,0
"2021-06-21 15:37:39+00",17.1,19.1,,74.6,-244,-725,-19,1007.34,75.9,0
"2021-06-21 15:42:39+00",11.2,14.2,,74.9,-165,-460,21,1007.23,75.8,0
"2021-06-21 15:47:39+00",18.0,20.0,,75.2,-287,-733,-14,1007.08,76.2,0
"2021-06-21 15:52:39+00",13.8,17.8,,75.2,-163,-563,-2,1007.08,76.2,0
"2021-06-21 15:57:39+00",13.4,16.4,,75.3,-237,-538,2,1007,76.3,0
"2021-06-21 16:02:39+00",11.7,13.7,,75.8,-188,-487,10,1006.93,76.6,0
"2021-06-21 16:07:39+00",12.9,14.9,,75.8,-263,-516,8,1006.97,76.5,0
"2021-06-21 16:12:39+00",13.4,15.4,,76.2,-263,-541,15,1006.9,76.9,0
"2021-06-21 16:17:39+00",13.9,16.9,,76.3,-297,-538,10,1006.81,77.2,0
"2021-06-21 16:22:39+00",13.9,14.9,,76.6,-277,-562,4,1006.65,77.6,0
"2021-06-21 16:27:39+00",13.1,15.1,,76.8,-338,-511,-1,1006.7,77.8,0
"2021-06-21 16:32:39+00",13.6,15.6,,76.9,-256,-552,-4,1006.58,77.9,0
"2021-06-21 16:37:39+00",14.0,15.0,,77,-265,-558,-25,1006.62,77.9,0
"2021-06-21 16:42:39+00",11.6,13.6,,77.2,-264,-462,38,1006.74,78,0
"2021-06-21 16:47:39+00",12.0,16.0,,77.2,-215,-494,6,1006.42,78,0
"2021-06-21 16:52:39+00",10.4,13.4,,76.9,-49,-462,-12,1006.36,77.6,0
"2021-06-21 16:57:39+00",10.8,13.8,,75.8,45,-459,-18,1006.28,76.6,0
"2021-06-21 17:02:39+00",10.6,13.6,,75.4,-1,-458,-10,1006.16,76.2,0
"2021-06-21 17:07:39+00",10.5,16.5,,75.1,-46,-445,-7,1006.18,75.9,0
"2021-06-21 17:12:39+00",12.4,17.4,,74.6,-6,-488,-5,1006.03,75.5,0
"2021-06-21 17:17:39+00",14.5,18.5,,74.6,-84,-617,-12,1006.02,75.6,0
"2021-06-21 17:22:39+00",13.3,17.3,,74.8,-51,-572,-14,1005.83,75.6,0
"2021-06-21 17:27:39+00",12.7,16.7,,75,-38,-554,-34,1005.55,75.8,0
"2021-06-21 17:32:39+00",11.5,14.5,,75.2,-44,-482,-3,1005.47,76,0
"2021-06-21 17:37:39+00",14.3,19.3,,74.9,-87,-614,-29,1005.39,75.9,0
"2021-06-21 17:42:39+00",15.6,20.6,,74.7,-125,-634,-6,1005.14,75.6,0
"2021-06-21 17:47:39+00",12.2,17.2,,74.8,3,-530,-3,1005.33,75.7,0
"2021-06-21 17:52:39+00",13.7,19.7,,74.3,-95,-578,10,1005.53,75.3,0
"2021-06-21 17:57:39+00",16.2,21.2,,73.9,-150,-675,24,1005.57,75.1,0
"2021-06-21 18:02:39+00",13.2,20.2,,74.1,-171,-560,4,1005.67,75.2,0
"2021-06-21 18:07:39+00",13.3,18.3,,74.6,-182,-566,16,1005.7,75.8,0
"2021-06-21 18:12:39+00",11.6,14.6,,75.3,-124,-489,13,1005.58,76.4,0
"2021-06-21 18:17:39+00",16.7,18.7,,75.4,-233,-696,-19,1005.57,76.7,0
"2021-06-21 18:22:39+00",19.1,22.1,,76,-402,-764,7,1005.55,77.2,0
"2021-06-21 18:27:39+00",18.8,21.8,,76,-324,-766,4,1005.27,77,0
"2021-06-21 18:32:39+00",16.7,18.7,,76,-343,-670,18,1005.35,77.1,0
"2021-06-21 18:37:39+00",17.1,22.1,,76.4,-228,-728,-20,1005.17,77.6,0
"2021-06-21 18:42:39+00",20.1,23.1,,76.9,-410,-806,4,1005.13,78.3,0
"2021-06-21 18:47:39+00",18.8,20.8,,76.5,-345,-760,-10,1005.29,78.1,0
"2021-06-21 18:52:39+00",19.8,22.8,,76.3,-368,-799,-2,1005.21,77.9,0
"2021-06-21 18:57:39+00",16.0,19.0,,76.6,-233,-673,-7,1005.22,78,0
"2021-06-21 19:02:39+00",19.1,21.1,,76.6,-261,-808,-13,1005.14,78.1,0
"2021-06-21 19:07:39+00",17.4,20.4,,76.8,-371,-708,-3,1005.14,78.2,0
"2021-06-21 19:12:39+00",16.6,19.6,,77.4,-215,-703,10,1004.95,78.6,0
"2021-06-21 19:17:39+00",17.9,19.9,,77.4,-297,-721,-5,1004.99,78.9,0
"2021-06-21 19:22:39+00",17.5,19.5,,77.5,-333,-707,-13,1005,79.2,0
"2021-06-21 19:27:39+00",16.7,17.7,,78.2,-288,-678,-3,1004.87,79.9,0
"2021-06-21 19:32:39+00",19.1,22.1,,78.4,-559,-653,4,1004.91,80.1,0
"2021-06-21 19:37:39+00",17.8,20.8,,78.5,-498,-637,15,1004.9,80.6,0
"2021-06-21 19:42:39+00",16.5,20.5,,78.6,-463,-586,14,1004.84,80.8,0
"2021-06-21 19:47:39+00",14.0,17.0,,78.9,-341,-549,21,1004.93,81.2,0
"2021-06-21 19:52:39+00",11.9,17.9,,78.8,-89,-538,-11,1004.85,80.8,0
"2021-06-21 19:57:39+00",12.3,15.3,,77.7,-84,-518,24,1004.86,79.6,0
"2021-06-21 20:02:39+00",16.2,19.2,,77.4,-222,-660,-26,1004.78,79.1,0
"2021-06-21 20:07:39+00",15.0,18.0,,77.4,-238,-615,-1,1004.68,79,0
"2021-06-21 20:12:39+00",14.1,16.1,,77.2,-283,-560,12,1004.74,79.2,0
"2021-06-21 20:17:39+00",14.1,17.1,,77.6,-208,-591,-17,1004.56,79.3,0
"2021-06-21 20:22:39+00",12.4,16.4,,77.7,-101,-540,3,1004.57,79.2,0
"2021-06-21 20:27:39+00",12.5,17.5,,77.4,-95,-533,5,1004.7,78.8,0
"2021-06-21 20:32:39+00",16.3,19.3,,76.5,-105,-713,-29,1004.68,78,0
"2021-06-21 20:37:39+00",13.9,17.9,,76,-111,-607,4,1004.77,77.4,0
"2021-06-21 20:42:39+00",15.9,19.9,,75.5,-111,-679,-20,1004.88,77.1,0
"2021-06-21 20:47:39+00",14.3,17.3,,75.4,-125,-612,-3,1004.71,76.8,0
"2021-06-21 20:52:39+00",16.6,20.6,,75.5,-201,-691,-6,1004.78,76.8,0
"2021-06-21 20:57:39+00",14.3,19.3,,75.7,-123,-611,10,1004.71,76.9,0
"2021-06-21 21:02:39+00",13.5,18.5,,75.5,-102,-554,6,1004.55,76.7,0
"2021-06-21 21:07:39+00",16.2,23.2,,75,-92,-713,-21,1004.47,76.3,0
"2021-06-21 21:12:39+00",14.6,18.6,,74.7,-153,-614,-7,1004.29,76,0
"2021-06-21 21:17:39+00",17.3,22.3,,74.6,-106,-722,-27,1004.24,75.9,0
"2021-06-21 21:22:39+00",11.0,15.0,,74.5,-31,-474,-9,1004.1,75.6,0
"2021-06-21 21:27:39+00",11.2,16.2,,74.5,-13,-483,-31,1004,75.4,0
"2021-06-21 21:32:39+00",11.0,13.0,,73.2,26,-475,-7,1003.85,74.4,0
"2021-06-21 21:37:39+00",13.5,16.5,,72.7,67,-554,-32,1003.63,73.8,0
"2021-06-21 21:42:39+00",10.8,12.8,,72.9,41,-453,7,1003.44,73.9,0
"2021-06-21 21:47:39+00",14.4,18.4,,73.2,-112,-630,-39,1003.45,74.1,0
"2021-06-21 21:52:39+00",14.7,19.7,,73.3,-100,-642,-12,1003.43,74.3,0
"2021-06-21 21:57:39+00",13.7,16.7,,73.7,-141,-588,23,1003.16,74.5,0
"2021-06-21 22:02:39+00",10.4,14.4,,73.8,-36,-427,21,1003.17,74.5,0
"2021-06-21 22:07:39+00",11.9,15.9,,73.6,-24,-512,-18,1003.04,74.3,0
"2021-06-21 22:12:39+00",15.6,21.6,,73.5,-113,-637,-6,1003.24,74.2,0
"2021-06-21 22:17:39+00",17.8,21.8,,73.4,-261,-749,-19,1003.36,74.3,0
"2021-06-21 22:22:39+00",15.8,18.8,,73.2,-242,-648,-12,1003.33,74.1,0
"2021-06-21 22:27:39+00",15.5,18.5,,73.5,-255,-636,1,1003.53,74.2,0
"2021-06-21 22:32:39+00",17.1,20.1,,73.4,-312,-696,3,1003.68,74.2,0
"2021-06-21 22:37:39+00",17.6,20.6,,73.4,-306,-710,-14,1003.69,74.2,0
"2021-06-21 22:42:39+00",15.3,17.3,,73.6,-295,-623,2,1003.79,74.2,0
"2021-06-21 22:47:39+00",14.6,17.6,,73.7,-312,-590,18,1003.7,74.4,0
"2021-06-21 22:52:39+00",16.0,18.0,,73.7,-243,-663,-14,1003.63,74.3,0
"2021-06-21 22:57:39+00",11.5,17.5,,74,-93,-464,6,1003.55,74.4,0
"2021-06-21 23:02:39+00",15.8,19.8,,73.6,-146,-664,-12,1003.46,74.2,0
"2021-06-21 23:07:39+00",14.5,18.5,,73,-175,-599,-8,1003.53,73.4,0
"2021-06-21 23:12:39+00",14.1,19.1,,72.4,-172,-611,-1,1003.39,72.7,0
"2021-06-21 23:17:39+00",15.2,19.2,,72,-161,-625,-6,1003.38,72.2,0
"2021-06-21 23:22:39+00",11.1,15.1,,71.8,-128,-458,26,1003.36,71.9,0
"2021-06-21 23:27:39+00",11.9,14.9,,71.7,-98,-512,14,1003.36,71.8,0
"2021-06-21 23:32:39+00",12.4,15.4,,71.7,-145,-517,10,1003.56,71.7,0
"2021-06-21 23:37:39+00",12.2,15.2,,71.5,-153,-513,11,1003.56,71.5,0
"2021-06-21 23:42:39+00",12.1,15.1,,71.4,-183,-492,-2,1003.64,71.3,0
"2021-06-21 23:47:39+00",13.7,16.7,,71.3,-341,-565,-48,1003.86,71.3,0
"2021-06-21 23:52:39+00",12.8,15.8,,71.3,-309,-509,-40,1003.98,71.3,0
"2021-06-21 23:57:39+00",11.1,13.1,,71.1,-240,-443,-39,1003.96,71.1,0
